Location: Greenwich
(51.4790°N, 0.0090°E)
Time: 06:51:27
(UTC+01:00)

X-37B - Pass Details

Date: 26 September 2021
Orbit: 385 x 389 km, 45.0° (Epoch: 17 October)

Event Time Altitude Azimuth Distance (km) Brightness Sun altitude
Exits shadow 05:17:32 19° 192° (SSW) 998 2.4 -15.4°
Maximum altitude 05:18:25 21° 168° (SSE) 925 2.4 -15.3°
Drops below altitude 10° 05:20:55 10° 116° (ESE) 1,415 4.1 -14.9°
Sets 05:23:17 0° 100° (E) 2,272 5.7 -14.6°
